Weather History for Staples, MN

Change the Weather History Date:

Friday, October 26, 2012

  Actual Average Record
Temperature  
Mean Temperature 34 °F -  
Max Temperature 37 °F 46 °F 66 °F (2000)
Min Temperature 30 °F 31 °F 21 °F (2003)
Degree Days  
Heating Degree Days 32    
Moisture  
Dew Point 20 °F    
Average Humidity 59    
Maximum Humidity 75    
Minimum Humidity 41    
Precipitation  
Precipitation 0.00 in - - ()
Sea Level Pressure  
Sea Level Pressure 30.23 in    
Wind  
Wind Speed 13 mph (West)    
Max Wind Speed 25 mph    
Max Gust Speed 31 mph    
Visibility 10 miles    
Events      
Averages and records for this station are not official NWS values.
T = Trace of Precipitation, MM = Missing Value Source: NWS Daily Summary

Daily Weather History Graph

Daily Weather History Graph

Search for Another Location

Airport:

Trip Planner

Search our weather history database for the weather conditions in past years. The results will help you decide how hot, cold, wet, or windy it might be!

Date:

Astronomy

Oct. 26, 2012 Rise Set
Actual Time 7:52 AM CDT 6:12 PM CDT
Civil Twilight 7:21 AM CDT 6:43 PM CDT
Nautical Twilight 6:46 AM CDT 7:19 PM CDT
Astronomical Twilight 6:11 AM CDT 7:53 PM CDT
Moon 4:36 PM CDT (10/26) 4:41 AM CDT (10/26)
Length of Visible Light 11h 22m
Length of Day
10h 20m
Waxing Gibbous, 91% of the Moon is Illuminated
Oct 26
Waxing Gibbous
Oct 29
Full
Nov 6
Last Quarter
Nov 13
New
Nov 20
First Quarter

Hourly Weather History & Observations

Time (CDT) Temp. Windchill Dew Point Humidity Pressure Visibility Wind Dir Wind Speed Gust Speed Precip Events Conditions
12:13 AM 33.8 °F 25.3 °F 26.6 °F 75% 30.08 in 10.0 mi West 11.5 mph 20.7 mph N/A   Overcast
12:33 AM 33.8 °F 24.8 °F 26.6 °F 75% 30.09 in 10.0 mi WNW 12.7 mph - N/A   Overcast
1:13 AM 33.8 °F 23.5 °F 26.6 °F 75% 30.10 in 10.0 mi West 16.1 mph 20.7 mph N/A   Overcast
1:33 AM 33.8 °F 23.5 °F 26.6 °F 75% 30.11 in 10.0 mi West 16.1 mph 21.9 mph N/A   Overcast
1:53 AM 33.8 °F 24.3 °F 26.6 °F 75% 30.11 in 10.0 mi West 13.8 mph 17.3 mph N/A   Overcast
2:13 AM 33.8 °F 24.3 °F 26.6 °F 75% 30.12 in 10.0 mi WNW 13.8 mph 24.2 mph N/A   Overcast
2:33 AM 33.8 °F 24.3 °F 24.8 °F 70% 30.13 in 10.0 mi West 13.8 mph 20.7 mph N/A   Overcast
2:54 AM 33.8 °F 25.3 °F 26.6 °F 75% 30.13 in 10.0 mi West 11.5 mph 17.3 mph N/A   Overcast
3:13 AM 33.8 °F 25.3 °F 24.8 °F 70% 30.14 in 10.0 mi West 11.5 mph 20.7 mph N/A   Overcast
3:53 AM 33.8 °F 24.3 °F 24.8 °F 70% 30.14 in 10.0 mi West 13.8 mph 17.3 mph N/A   Overcast
4:13 AM 33.8 °F 25.3 °F 24.8 °F 70% 30.14 in 10.0 mi West 11.5 mph 23.0 mph N/A   Overcast
4:33 AM 33.8 °F 23.2 °F 24.8 °F 70% 30.15 in 10.0 mi West 17.3 mph 24.2 mph N/A   Overcast
4:53 AM 33.8 °F 21.9 °F 21.2 °F 60% 30.16 in 10.0 mi WNW 21.9 mph 29.9 mph N/A   Overcast
5:13 AM 33.8 °F 23.9 °F 21.2 °F 60% 30.16 in 10.0 mi WNW 15.0 mph 19.6 mph N/A   Overcast
5:33 AM 33.8 °F 25.3 °F 21.2 °F 60% 30.17 in 10.0 mi WNW 11.5 mph 19.6 mph N/A   Overcast
5:53 AM 33.8 °F 25.3 °F 21.2 °F 60% 30.18 in 10.0 mi WNW 11.5 mph - N/A   Overcast
6:13 AM 33.8 °F 23.9 °F 23.0 °F 65% 30.19 in 10.0 mi West 15.0 mph 19.6 mph N/A   Overcast
6:33 AM 32.0 °F 22.1 °F 24.8 °F 75% 30.20 in 10.0 mi WNW 13.8 mph - N/A   Overcast
6:54 AM 32.0 °F 23.6 °F 24.8 °F 75% 30.21 in 10.0 mi WNW 10.4 mph - N/A   Overcast
7:13 AM 32.0 °F 21.2 °F 21.2 °F 64% 30.22 in 10.0 mi WNW 16.1 mph 25.3 mph N/A   Overcast
7:54 AM 32.0 °F 23.0 °F 19.4 °F 60% 30.23 in 10.0 mi WNW 11.5 mph - N/A   Overcast
8:33 AM 32.0 °F 22.5 °F 21.2 °F 64% 30.24 in 10.0 mi West 12.7 mph - N/A   Overcast
8:53 AM 32.0 °F 20.8 °F 21.2 °F 64% 30.24 in 10.0 mi West 17.3 mph 21.9 mph N/A   Overcast
9:13 AM 33.8 °F 25.3 °F 19.4 °F 56% 30.25 in 10.0 mi West 11.5 mph 15.0 mph N/A   Overcast
9:34 AM 33.8 °F 22.8 °F 19.4 °F 56% 30.25 in 10.0 mi West 18.4 mph 25.3 mph N/A   Overcast
9:53 AM 33.8 °F 24.3 °F 19.4 °F 56% 30.26 in 10.0 mi West 13.8 mph 25.3 mph N/A   Overcast
10:13 AM 33.8 °F 22.5 °F 19.4 °F 56% 30.27 in 10.0 mi West 19.6 mph 26.5 mph N/A   Overcast
10:34 AM 33.8 °F 23.9 °F 19.4 °F 56% 30.27 in 10.0 mi West 15.0 mph 24.2 mph N/A   Overcast
10:53 AM 33.8 °F 23.5 °F 19.4 °F 56% 30.27 in 10.0 mi WNW 16.1 mph 24.2 mph N/A   Overcast
11:13 AM 33.8 °F 23.2 °F 19.4 °F 56% 30.27 in 10.0 mi West 17.3 mph 23.0 mph N/A   Overcast
11:34 AM 33.8 °F 24.3 °F 19.4 °F 56% 30.27 in 10.0 mi West 13.8 mph 20.7 mph N/A   Overcast
11:53 AM 35.6 °F 25.2 °F 19.4 °F 52% 30.28 in 10.0 mi West 18.4 mph 24.2 mph N/A   Overcast
12:13 PM 35.6 °F 26.6 °F 19.4 °F 52% 30.28 in 10.0 mi WNW 13.8 mph 21.9 mph N/A   Overcast
12:34 PM 35.6 °F 25.2 °F 17.6 °F 48% 30.28 in 10.0 mi West 18.4 mph 25.3 mph N/A   Overcast
12:53 PM 33.8 °F 22.2 °F 15.8 °F 48% 30.27 in 10.0 mi WNW 20.7 mph 29.9 mph N/A   Overcast
1:13 PM 37.4 °F 25.9 °F 15.8 °F 41% 30.27 in 10.0 mi West 25.3 mph 31.1 mph N/A   Overcast
1:33 PM 37.4 °F 27.5 °F 15.8 °F 41% 30.27 in 10.0 mi WSW 18.4 mph 29.9 mph N/A   Mostly Cloudy
1:53 PM 37.4 °F 28.2 °F 15.8 °F 41% 30.26 in 10.0 mi WNW 16.1 mph 26.5 mph N/A   Mostly Cloudy
2:14 PM 35.6 °F 26.2 °F 15.8 °F 44% 30.26 in 10.0 mi West 15.0 mph 25.3 mph N/A   Overcast
2:33 PM 35.6 °F 26.6 °F 15.8 °F 44% 30.26 in 10.0 mi WNW 13.8 mph 20.7 mph N/A   Overcast
2:53 PM 35.6 °F 27.5 °F 17.6 °F 48% 30.26 in 10.0 mi West 11.5 mph 20.7 mph N/A   Overcast
3:14 PM 35.6 °F 25.2 °F 17.6 °F 48% 30.27 in 10.0 mi West 18.4 mph 24.2 mph N/A   Overcast
3:33 PM 35.6 °F 27.5 °F 19.4 °F 52% 30.27 in 10.0 mi West 11.5 mph 23.0 mph N/A   Overcast
3:53 PM 35.6 °F 26.2 °F 17.6 °F 48% 30.26 in 10.0 mi West 15.0 mph 23.0 mph N/A   Overcast
4:14 PM 35.6 °F 26.6 °F 17.6 °F 48% 30.27 in 10.0 mi West 13.8 mph 24.2 mph N/A   Overcast
4:33 PM 33.8 °F 25.3 °F 17.6 °F 52% 30.27 in 10.0 mi West 11.5 mph - N/A   Overcast
4:53 PM 33.8 °F 27.0 °F 17.6 °F 52% 30.27 in 10.0 mi West 8.1 mph 16.1 mph N/A   Overcast
5:14 PM 33.8 °F 25.3 °F 17.6 °F 52% 30.27 in 10.0 mi West 11.5 mph - N/A   Overcast
5:33 PM 33.8 °F 24.3 °F 17.6 °F 52% 30.27 in 10.0 mi West 13.8 mph - N/A   Overcast
5:53 PM 33.8 °F 24.8 °F 15.8 °F 48% 30.27 in 10.0 mi West 12.7 mph 17.3 mph N/A   Overcast
6:14 PM 33.8 °F 27.0 °F 17.6 °F 52% 30.27 in 10.0 mi West 8.1 mph - N/A   Overcast
6:33 PM 33.8 °F 26.4 °F 17.6 °F 52% 30.27 in 10.0 mi West 9.2 mph 16.1 mph N/A   Overcast
6:53 PM 33.8 °F 27.0 °F 17.6 °F 52% 30.28 in 10.0 mi West 8.1 mph - N/A   Overcast
7:14 PM 33.8 °F 26.4 °F 17.6 °F 52% 30.29 in 10.0 mi WNW 9.2 mph - N/A   Overcast
7:33 PM 32.0 °F 25.6 °F 17.6 °F 55% 30.29 in 10.0 mi WNW 6.9 mph - N/A   Overcast
7:53 PM 32.0 °F 27.5 °F 17.6 °F 55% 30.29 in 10.0 mi WNW 4.6 mph - N/A   Overcast
8:14 PM 32.0 °F 27.5 °F 17.6 °F 55% 30.29 in 10.0 mi WNW 4.6 mph - N/A   Overcast
8:33 PM 30.2 °F 26.7 °F 17.6 °F 60% 30.28 in 10.0 mi West 3.5 mph - N/A   Overcast
8:53 PM 30.2 °F 26.7 °F 17.6 °F 60% 30.28 in 10.0 mi WSW 3.5 mph - N/A   Overcast
9:14 PM 30.2 °F - 17.6 °F 60% 30.28 in 10.0 mi Calm Calm - N/A   Overcast
9:33 PM 30.2 °F 26.7 °F 19.4 °F 64% 30.28 in 10.0 mi WSW 3.5 mph - N/A   Overcast
9:54 PM 30.2 °F - 19.4 °F 64% 30.28 in 10.0 mi Calm Calm - N/A   Overcast
10:13 PM 30.2 °F 26.7 °F 19.4 °F 64% 30.28 in 10.0 mi SSW 3.5 mph - N/A   Overcast
10:33 PM 30.2 °F 26.7 °F 17.6 °F 60% 30.28 in 10.0 mi SW 3.5 mph - N/A   Overcast
10:54 PM 30.2 °F 25.4 °F 19.4 °F 64% 30.28 in 10.0 mi SW 4.6 mph - N/A   Overcast
11:33 PM 30.2 °F 25.4 °F 19.4 °F 64% 30.27 in 10.0 mi SW 4.6 mph - N/A   Overcast
11:54 PM 30.2 °F 26.7 °F 19.4 °F 64% 30.27 in 10.0 mi SSW 3.5 mph - N/A   Overcast